User: anonymous   Login
Location: Shades State Park
(39.9310°N, 87.0690°W)
Time: 07:01:06
(UTC-04:00)
Language:

H-2A R/B - Orbit

View from above orbital plane
View from above orbital plane
View from above satellite
View from above satellite

Ground track
Ground track

The orbit data is extracted from the following two-line orbital elements,

1 27601U 02056E   18144.78442528 +.00000018 +00000-0 +21883-4 0  9992
2 27601 098.3293 204.9452 0072126 003.0075 103.5661 14.31839237806693
Epoch (UTC): 24 May 2018 18:49:34
Eccentricity: 0.0072126
inclination: 98.3293°
perigee height: 734 km
apogee height: 837 km
right ascension of ascending node: 204.9452°
argument of perigee: 3.0075°
revolutions per day: 14.31839237
mean anomaly at epoch: 103.5661°
orbit number at epoch: 80669

The dashed part of the orbit path shows where the satellite is in the earth's shadow,  

DLR